Station DBLN6 - Dunkirk, NY Image indicating link to RSS feed of recent meteorological observations for station DBLN6


Conditions at DBLN6 as of
(12:00 am EDT)
0400 GMT on 05/27/2024:
     

Click on the graph icon in the table below to see a time series plot of the last five days of that observation.

5-day plot - Wind Direction Wind Direction (WDIR): SE ( 140 deg true )
5-day plot - Wind Speed Wind Speed (WSPD):4.1 m/s
5-day plot - Wind Gust Wind Gust (GST):7.7 m/s
5-day plot - Atmospheric Pressure Atmospheric Pressure (PRES):1003.0 mb
5-day plot - Pressure Tendency Pressure Tendency (PTDY): -2.4 mb ( Falling )
5-day plot - Air Temperature Air Temperature (ATMP): 21.5 °C
5-day plot - Wind Speed at 10 Meters Wind Speed at 10 meters (WSPD10M): 4 m/s
5-day plot - Wind Speed at 20 Meters Wind Speed at 20 meters (WSPD20M): 4 m/s
5-day plot -  Wind Speed, Wind Gust and Atmospheric Pressure Combined plot of Wind Speed, Gust, and Air Pressure
Continuous Winds
TIME
(EDT)
5-day plot - Wind Direction WDIR 5-day plot - Wind Speed WSPD
12:00 amSE ( 135 deg ) 5.1 m/s
11:50 pmSE ( 138 deg ) 5.1 m/s
11:40 pmSE ( 133 deg ) 4.6 m/s
11:30 pmSE ( 143 deg ) 5.1 m/s
11:20 pmSSE ( 157 deg ) 5.1 m/s
11:10 pmSE ( 138 deg ) 6.2 m/s
 
Peak gust during the measurement hour
TIME
(EDT)
5-day plot - Gust Direction GDR 5-day plot - Gust Speed GST
11:04 pmSE ( 130 deg ) 12.4 m/s
Previous observations
TIME
(EDT)
5-day plot - Wind Direction
WDIR
 
5-day plot - Wind Speed
WSPD
m/s
5-day plot - Wind Gust
GST
m/s
5-day plot - Wave Height
WVHT
m
5-day plot - Dominant Wave Period
DPD
sec
5-day plot - Average Wave Period
APD
sec
5-day plot - Mean Wave Direction
MWD
 
5-day plot - Atmospheric Pressure
PRES
mb
5-day plot - Pressure Tendency
PTDY
mb
5-day plot - Air Temperature
ATMP
°C
5-day plot - Water Temperature
WTMP
°C
5-day plot - Dew Point
DEWP
°C
5-day plot - Salinity
SAL
psu
5-day plot - Visibility
VIS
km
5-day plot - Tide (above MLLW)
TIDE
m
2024-05-26 11:00 pm SE 6 10----1003.4 -2.7 22.5-----
2024-05-26 10:00 pm E 6 7----1004.1 -2.8 21.5-----
2024-05-26 09:00 pm E 4 4----1005.4 -3.0 20.1-----
2024-05-26 08:00 pmENE 9 9----1006.1 -3.2 19.8-----
2024-05-26 07:00 pmENE 8 9----1006.9 -3.5 20.0-----
2024-05-26 06:00 pmENE 5 6----1008.4 -3.2 20.5-----
2024-05-26 05:00 pmENE 4 4----1009.3 -3.1 19.7-----
2024-05-26 04:00 pmENE 4 4----1010.4 -2.6 18.9-----
2024-05-26 03:00 pm NE 5 5----1011.6 -1.6 18.7-----
2024-05-26 02:00 pm NE 5 6----1012.4 -1.3 17.7-----
2024-05-26 01:00 pm NE 6 7----1013.0 -1.1 16.9-----
2024-05-26 12:00 pmNNE 6 7----1013.2 -0.8 16.6-----
2024-05-26 11:00 am N 4 5----1013.7 +0.0 16.2-----
2024-05-26 10:00 am NE 5 5----1014.1 +0.4 15.5-----
2024-05-26 09:00 am NE 3 3----1014.0 +0.0 17.0-----
2024-05-26 08:00 am E 2 3----1013.5 +0.3 17.6-----
2024-05-26 07:00 amSSE 2 2----1013.7 +0.6 15.8-----
2024-05-26 06:00 amSSE 3 4----1013.9 +1.2 14.6-----
2024-05-26 05:00 am S 2 2----1013.2 +0.8 16.0-----
2024-05-26 04:00 amSSW 2 2----1013.1 +0.8 16.0-----
2024-05-26 03:00 amWSW 2 3----1012.7 +0.5 16.7-----
2024-05-26 02:00 amSSW 3 3----1012.4 +0.6 17.1-----
2024-05-26 01:00 amSSW 3 3----1012.3 +0.9 17.4-----
2024-05-26 12:00 amSSW 2 3----1012.2 +1.8 17.6-----